KG6QHS-1 Ocean Park WA US current weather conditions

sailwx.info

Wind from 203 at 4 knots gusting 6

Air temperature 11.1° C
Dewpoint 10.2° C

Last reported at 2020-Jan-28 22:07 UTC.
Time now 2020-Jan-28 22:35 UTC

Location: N 46°32' W 124°03'.
View on Google Maps.

See reports from other nearby stations

  
Tides and Currents Weather Stations Pressure Air Temp Water Temp Dewpoint Dewpoint Depression Visibility Wind Speed Wind Dir Waves Ship Positions
date/time (UTC)wind fromknots sea level pressurealtimeterstation pressurevisibilityair tempwater tempwave heightnotes
2020-Jan-28 22:07 203 4 gusting 6 11.1
2020-Jan-28 22:02 209 2 gusting 3 11.1
2020-Jan-28 21:57 218 1 gusting 3 10.6
2020-Jan-28 21:52 161 1 gusting 3 10.6
2020-Jan-28 21:47 176 1 gusting 6 10.6
2020-Jan-28 21:42 180 5 gusting 6 10.6
2020-Jan-28 21:37 193 2 gusting 5 11.1
2020-Jan-28 21:32 178 2 gusting 5 10.6
2020-Jan-28 21:27 217 4 gusting 6 10.6
2020-Jan-28 21:22 126 1 gusting 6 10.6
2020-Jan-28 21:17 217 2 gusting 6 10.6
2020-Jan-28 21:12 217 4 gusting 6 10.6
2020-Jan-28 21:07 221 2 gusting 5 10.6
2020-Jan-28 21:02 165 1 gusting 5 10.6
2020-Jan-28 20:57 165 4 gusting 5 10.6
2020-Jan-28 20:52 166 1 gusting 3 10.6
2020-Jan-28 20:47 195 11.1
2020-Jan-28 20:42 205 2 gusting 6 10.6
2020-Jan-28 20:37 173 10.6
2020-Jan-28 20:32 073 10.6
2020-Jan-28 20:27 172 2 gusting 5 10.6
2020-Jan-28 20:22 151 4 gusting 5 10.6
2020-Jan-28 20:17 221 4 gusting 5 10.6
2020-Jan-28 20:12 276 2 gusting 6 10.6
2020-Jan-28 20:07 218 5 gusting 6 10.6
2020-Jan-28 20:02 199 4 gusting 5 10.6
2020-Jan-28 19:57 168 10.6
2020-Jan-28 19:52 152 10.6
2020-Jan-28 19:47 166 1 gusting 3 10.6
2020-Jan-28 19:42 185 2 gusting 6 10.6
2020-Jan-28 19:37 189 2 gusting 6 10.6
2020-Jan-28 19:32 267 2 gusting 6 10.6
2020-Jan-28 19:27 221 10.6
2020-Jan-28 19:22 201 4 gusting 5 10.6
2020-Jan-28 19:17 174 2 gusting 6 10.6
2020-Jan-28 19:12 210 4 gusting 6 10.6
2020-Jan-28 19:07 198 1 gusting 5 10.6
2020-Jan-28 19:02 209 10.0
2020-Jan-28 18:57 253 10.0
2020-Jan-28 18:52 195 10.0
2020-Jan-28 18:47 214 10.0
2020-Jan-28 18:42 149 10.0
2020-Jan-28 18:37 169 2 gusting 5 10.0
2020-Jan-28 18:32 155 2 gusting 5 10.0
2020-Jan-28 18:27 214 2 gusting 5 10.0
2020-Jan-28 18:22 220 2 gusting 5 10.0
2020-Jan-28 18:17 165 10.0
2020-Jan-28 18:12 180 4 gusting 6 9.4
2020-Jan-28 18:07 196 2 gusting 5 9.4
2020-Jan-28 18:02 165 2 gusting 3 9.4
2020-Jan-28 17:57 191 1 gusting 3 9.4
2020-Jan-28 17:52 184 1 gusting 3 9.4
2020-Jan-28 17:47 113 1 gusting 5 9.4
2020-Jan-28 17:42 276 1 gusting 6 9.4
2020-Jan-28 17:37 204 4 gusting 10 9.4
2020-Jan-28 17:32 243 2 gusting 10 9.4
2020-Jan-28 17:27 247 2 gusting 12 9.4
2020-Jan-28 17:22 177 2 gusting 12 9.4
2020-Jan-28 17:17 171 2 gusting 8 9.4
2020-Jan-28 17:12 148 9.4
2020-Jan-28 17:07 173 1 gusting 5 9.4
2020-Jan-28 17:02 131 1 gusting 5 9.4
2020-Jan-28 16:57 159 4 gusting 5 9.4
2020-Jan-28 16:52 161 2 gusting 10 9.4
2020-Jan-28 16:47 150 5 gusting 10 9.4
2020-Jan-28 16:42 201 9.4
2020-Jan-28 16:37 162 1 gusting 5 9.4
2020-Jan-28 16:32 113 4 gusting 5 9.4
2020-Jan-28 16:27 174 1 gusting 8 8.9
2020-Jan-28 16:22 204 2 gusting 8 8.9
2020-Jan-28 16:17 163 8.9
2020-Jan-28 16:12 196 1 gusting 8 8.9
2020-Jan-28 16:07 165 1 gusting 8 8.9
2020-Jan-28 16:02 267 2 gusting 5 8.9
2020-Jan-28 15:57 106 2 gusting 6 8.9
2020-Jan-28 15:52 114 4 gusting 6 8.9
2020-Jan-28 15:47 176 1 gusting 5 8.9
2020-Jan-28 15:42 129 8.9
2020-Jan-28 15:37 091 2 gusting 5 8.9
2020-Jan-28 15:32 143 1 gusting 6 8.9
2020-Jan-28 15:27 109 1 gusting 10 8.9
2020-Jan-28 15:22 148 8 gusting 10 8.9
2020-Jan-28 15:17 139 8 gusting 10 8.9
2020-Jan-28 15:12 136 4 gusting 10 8.9
2020-Jan-28 15:07 156 1 gusting 12 8.9
2020-Jan-28 15:02 184 5 gusting 12 8.9
2020-Jan-28 14:57 174 1 gusting 6 8.9
2020-Jan-28 14:52 150 4 gusting 8 8.9
2020-Jan-28 14:47 176 8.3
2020-Jan-28 14:42 146 2 gusting 8 8.3
2020-Jan-28 14:37 136 2 gusting 8 8.3
2020-Jan-28 14:32 026 8.3
2020-Jan-28 14:27 130 2 gusting 5 8.3
2020-Jan-28 14:22 116 1 gusting 15 8.3
2020-Jan-28 14:17 144 6 gusting 15 8.3
2020-Jan-28 14:12 134 4 gusting 8 8.3
2020-Jan-28 14:07 131 4 gusting 6 8.3
2020-Jan-28 14:02 115 4 gusting 6 8.3
2020-Jan-28 13:57 150 1 gusting 3 8.3
2020-Jan-28 13:52 130 8.3
2020-Jan-28 13:47 123 1 gusting 6 8.3
2020-Jan-28 13:42 143 2 gusting 5 8.3
2020-Jan-28 13:37 136 1 gusting 3 8.3
2020-Jan-28 13:32 137 8.3
2020-Jan-28 13:27 188 1 gusting 1 8.3
2020-Jan-28 13:22 158 8.3
2020-Jan-28 13:17 177 8.3
2020-Jan-28 13:12 129 1 gusting 5 8.3
2020-Jan-28 13:07 169 1 gusting 3 8.3
2020-Jan-28 13:02 202 8.3
2020-Jan-28 12:57 150 8.3
2020-Jan-28 12:52 210 1 gusting 8 8.3
2020-Jan-28 12:47 150 2 gusting 10 8.3
2020-Jan-28 12:42 139 5 gusting 10 8.3
2020-Jan-28 12:37 140 1 gusting 10 8.3
2020-Jan-28 12:32 148 4 gusting 10 8.9
2020-Jan-28 12:27 142 4 gusting 13 8.9
2020-Jan-28 12:22 191 5 gusting 13 8.9
2020-Jan-28 12:17 222 1 gusting 12 8.9
2020-Jan-28 12:12 140 4 gusting 6 8.9
2020-Jan-28 12:07 186 2 gusting 10 8.9
2020-Jan-28 12:02 190 4 gusting 13 8.9
2020-Jan-28 11:57 164 4 gusting 15 8.9
2020-Jan-28 11:52 186 12 gusting 15 8.9
2020-Jan-28 11:47 156 4 gusting 5 8.9
2020-Jan-28 11:42 172 8.3
2020-Jan-28 11:37 134 2 gusting 5 8.3
2020-Jan-28 11:32 131 4 gusting 5 8.3
2020-Jan-28 11:27 168 1 gusting 6 8.3
2020-Jan-28 11:22 150 4 gusting 6 8.3
2020-Jan-28 11:17 167 4 gusting 10 8.3
2020-Jan-28 11:12 157 5 gusting 10 8.3
2020-Jan-28 11:07 186 2 gusting 8 8.3
2020-Jan-28 11:02 176 2 gusting 3 8.9
2020-Jan-28 10:57 178 8.9
2020-Jan-28 10:52 182 2 gusting 8 8.9
2020-Jan-28 10:47 153 1 gusting 5 8.9
2020-Jan-28 10:42 137 2 gusting 5 8.9
2020-Jan-28 10:37 160 1 gusting 5 8.9
2020-Jan-28 10:32 200 4 gusting 6 8.9
2020-Jan-28 10:27 194 1 gusting 6 8.9
2020-Jan-28 10:22 169 2 gusting 5 8.9
2020-Jan-28 10:17 120 2 gusting 5 8.9
2020-Jan-28 10:12 156 2 gusting 12 8.9
2020-Jan-28 10:07 174 9 gusting 12 8.9
2020-Jan-28 10:02 176 8 gusting 22 9.4
2020-Jan-28 09:57 130 1 gusting 22 10.0
2020-Jan-28 09:52 110 1 gusting 6 10.0
2020-Jan-28 09:47 131 1 gusting 8 10.0
2020-Jan-28 09:42 130 4 gusting 8 10.0
2020-Jan-28 09:37 162 5 gusting 8 10.0
2020-Jan-28 09:32 162 4 gusting 10 10.0
2020-Jan-28 09:27 170 6 gusting 10 10.0
2020-Jan-28 09:22 198 2 gusting 12 10.0
2020-Jan-28 09:17 184 5 gusting 12 10.0
2020-Jan-28 09:12 216 5 gusting 10 10.0
2020-Jan-28 09:07 150 2 gusting 13 10.0
2020-Jan-28 09:02 139 11 gusting 13 10.0
2020-Jan-28 08:57 195 1 gusting 10 10.0
2020-Jan-28 08:52 121 6 gusting 8 10.0
2020-Jan-28 08:47 211 5 gusting 8 10.0
2020-Jan-28 08:42 129 4 gusting 8 10.0
2020-Jan-28 08:37 142 4 gusting 6 10.0
2020-Jan-28 08:32 177 1 gusting 12 10.0
2020-Jan-28 08:27 175 4 gusting 12 10.0
2020-Jan-28 08:22 174 8 gusting 10 10.0
2020-Jan-28 08:17 164 2 gusting 10 10.0
2020-Jan-28 08:12 160 8 gusting 12 10.0
2020-Jan-28 08:07 167 4 gusting 12 10.0
2020-Jan-28 08:02 217 5 gusting 10 10.0
2020-Jan-28 07:57 191 4 gusting 10 10.6
2020-Jan-28 07:52 202 4 gusting 10 10.6
2020-Jan-28 07:47 193 6 gusting 10 10.6
2020-Jan-28 07:42 113 2 gusting 6 10.6
2020-Jan-28 07:37 195 2 gusting 15 10.6
2020-Jan-28 07:32 156 5 gusting 15 10.6
2020-Jan-28 07:27 199 6 gusting 12 10.6
2020-Jan-28 07:22 184 8 gusting 12 10.6
2020-Jan-28 07:17 158 2 gusting 12 10.6
2020-Jan-28 07:12 205 2 gusting 12 10.6
2020-Jan-28 07:07 137 4 gusting 6 10.6
2020-Jan-28 07:02 188 10.6
2020-Jan-28 06:57 212 4 gusting 6 10.6
2020-Jan-28 06:52 115 2 gusting 6 10.6
2020-Jan-28 06:47 172 4 gusting 6 10.6
2020-Jan-28 06:42 171 1 gusting 8 10.6
2020-Jan-28 06:37 219 6 gusting 8 10.6
2020-Jan-28 06:32 209 4 gusting 6 10.6
2020-Jan-28 06:27 124 2 gusting 6 10.6
2020-Jan-28 06:22 132 2 gusting 6 10.6
2020-Jan-28 06:17 176 5 gusting 19 10.6
2020-Jan-28 06:12 244 15 gusting 19 10.6
2020-Jan-28 06:07 207 8 gusting 13 10.6
2020-Jan-28 06:02 185 5 gusting 8 10.6
2020-Jan-28 05:57 240 5 gusting 8 10.6
2020-Jan-28 05:52 214 2 gusting 10 10.6
2020-Jan-28 05:47 189 5 gusting 10 10.6
2020-Jan-28 05:42 210 5 gusting 10 10.6
2020-Jan-28 05:37 169 1 gusting 15 10.6
2020-Jan-28 05:32 173 6 gusting 15 10.6
2020-Jan-28 05:27 163 2 gusting 12 10.6
2020-Jan-28 05:22 161 4 gusting 12 10.6
2020-Jan-28 05:17 160 5 gusting 12 10.6
2020-Jan-28 05:12 174 2 gusting 6 10.6
2020-Jan-28 05:07 194 1 gusting 8 10.6
2020-Jan-28 05:02 191 2 gusting 8 10.6
2020-Jan-28 04:57 234 4 gusting 6 10.6
2020-Jan-28 04:52 174 5 gusting 6 10.6
2020-Jan-28 04:47 177 2 gusting 8 10.6
2020-Jan-28 04:42 129 2 gusting 12 10.6
2020-Jan-28 04:37 186 5 gusting 13 10.6
2020-Jan-28 04:32 187 11 gusting 13 10.6
2020-Jan-28 04:27 165 5 gusting 10 10.6
2020-Jan-28 04:22 255 5 gusting 13 10.6
2020-Jan-28 04:17 193 11 gusting 13 10.6
2020-Jan-28 04:12 164 5 gusting 8 10.6
2020-Jan-28 04:07 167 2 gusting 10 10.6
2020-Jan-28 04:02 194 6 gusting 13 10.6
2020-Jan-28 03:57 151 5 gusting 13 10.6
2020-Jan-28 03:52 162 4 gusting 12 10.6
2020-Jan-28 03:47 181 6 gusting 10 10.6
2020-Jan-28 03:42 191 1 gusting 10 10.6
2020-Jan-28 03:37 158 5 gusting 10 10.6
2020-Jan-28 03:32 197 2 gusting 10 10.6
2020-Jan-28 03:27 187 2 gusting 12 10.6
2020-Jan-28 03:22 175 9 gusting 12 10.6
2020-Jan-28 03:17 188 5 gusting 13 10.6
2020-Jan-28 03:12 210 2 gusting 13 10.6
2020-Jan-28 03:07 155 6 gusting 12 10.6
2020-Jan-28 03:02 162 2 gusting 12 10.6
2020-Jan-28 02:57 210 5 gusting 15 10.6
2020-Jan-28 02:52 163 5 gusting 22 10.6
2020-Jan-28 02:47 179 9 gusting 22 10.6
2020-Jan-28 02:42 181 8 gusting 12 10.6
2020-Jan-28 02:37 164 5 gusting 19 10.6
2020-Jan-28 02:32 167 8 gusting 19 10.6
2020-Jan-28 02:27 193 2 gusting 15 10.6
2020-Jan-28 02:22 153 5 gusting 15 10.6
2020-Jan-28 02:17 163 5 gusting 15 10.6
2020-Jan-28 02:12 205 9 gusting 15 10.6
2020-Jan-28 02:07 149 4 gusting 24 10.6
2020-Jan-28 02:02 285 4 gusting 24 10.6
2020-Jan-28 01:57 177 4 gusting 22 10.6
2020-Jan-28 01:52 217 2 gusting 22 10.6
2020-Jan-28 01:47 207 6 gusting 12 10.6
2020-Jan-28 01:42 169 8 gusting 29 10.6
2020-Jan-28 01:37 124 6 gusting 34 10.6
2020-Jan-28 01:32 139 9 gusting 34 10.6
2020-Jan-28 01:27 162 6 gusting 19 10.6
2020-Jan-28 01:22 154 9 gusting 19 10.6
2020-Jan-28 01:17 155 2 gusting 19 10.0
2020-Jan-28 01:12 162 6 gusting 19 10.0
2020-Jan-28 01:07 148 2 gusting 22 9.4
2020-Jan-28 01:02 137 9 gusting 22 9.4
2020-Jan-28 00:47 139 5 gusting 27 9.4
2020-Jan-28 00:42 202 6 gusting 31 9.4
2020-Jan-28 00:37 122 8 gusting 31 8.9
2020-Jan-28 00:32 139 12 gusting 26 8.9
2020-Jan-28 00:27 145 13 gusting 26 8.9
2020-Jan-28 00:22 155 12 gusting 26 8.9
2020-Jan-28 00:17 092 13 gusting 20 8.9
2020-Jan-28 00:12 115 4 gusting 20 8.9
2020-Jan-28 00:07 158 8 gusting 17 8.3
2020-Jan-28 00:02 154 11 gusting 15 8.3
2020-Jan-27 23:57 141 11 gusting 26 8.3
2020-Jan-27 23:52 130 9 gusting 26 8.3
2020-Jan-27 23:47 109 5 gusting 27 8.3
2020-Jan-27 23:42 109 4 gusting 27 8.3
2020-Jan-27 23:37 144 9 gusting 19 8.3
2020-Jan-27 23:32 136 12 gusting 19 8.3
2020-Jan-27 23:27 134 8 gusting 20 8.3
2020-Jan-27 23:22 110 12 gusting 20 8.3
2020-Jan-27 23:17 132 6 gusting 22 8.3
2020-Jan-27 23:12 127 12 gusting 22 8.3
2020-Jan-27 23:07 127 8 gusting 22 8.3
2020-Jan-27 23:02 130 18 gusting 22 8.3
2020-Jan-27 22:57 109 12 gusting 22 8.3
2020-Jan-27 22:52 142 8 gusting 22 8.3
2020-Jan-27 22:42 121 6 gusting 26 8.3
2020-Jan-27 22:37 143 9 gusting 26 8.3
2020-Jan-27 22:32 116 9 gusting 19 8.3
2020-Jan-27 22:27 129 8 gusting 19 8.3
2020-Jan-27 22:22 091 6 gusting 22 8.3
2020-Jan-27 22:17 123 18 gusting 22 8.3
2020-Jan-27 22:12 127 6 gusting 20 8.3
2020-Jan-27 22:07 114 8 gusting 31 8.3
2020-Jan-27 22:02 122 15 gusting 31 8.3
2020-Jan-27 21:57 146 4 gusting 17 8.3
2020-Jan-27 21:52 094 6 gusting 19 8.3
2020-Jan-27 21:47 067 9 gusting 19 7.8
2020-Jan-27 21:42 113 8 gusting 19 7.8
2020-Jan-27 21:37 110 4 gusting 13 7.8
2020-Jan-27 21:32 145 4 gusting 15 7.8
2020-Jan-27 21:27 114 8 gusting 15 7.8
2020-Jan-27 21:22 065 5 gusting 13 7.8
2020-Jan-27 21:17 081 2 gusting 13 7.8
2020-Jan-27 21:12 121 2 gusting 6 7.8
2020-Jan-27 21:07 127 2 gusting 6 7.8
2020-Jan-27 21:02 124 4 gusting 6 7.8
2020-Jan-27 20:57 121 2 gusting 10 7.8
2020-Jan-27 20:52 113 2 gusting 10 7.8
2020-Jan-27 20:47 141 4 gusting 6 7.8
2020-Jan-27 20:42 129 1 gusting 3 7.8
2020-Jan-27 20:37 129 2 gusting 3 7.8
2020-Jan-27 20:32 101 7.8
2020-Jan-27 20:27 092 7.8
2020-Jan-27 20:22 094 1 gusting 13 7.8
2020-Jan-27 20:17 117 4 gusting 13 7.8
2020-Jan-27 20:12 141 6 gusting 19 7.8
2020-Jan-27 20:07 095 6 gusting 19 7.8
2020-Jan-27 20:02 124 5 gusting 17 7.8
2020-Jan-27 19:57 102 4 gusting 15 7.8
2020-Jan-27 19:52 106 2 gusting 10 7.8
2020-Jan-27 19:47 125 5 gusting 19 7.8
2020-Jan-27 19:42 143 12 gusting 19 7.8
2020-Jan-27 19:37 119 6 gusting 17 7.8
2020-Jan-27 19:32 157 5 gusting 17 7.8
2020-Jan-27 19:27 121 9 gusting 17 7.8
2020-Jan-27 19:22 186 2 gusting 15 7.8
2020-Jan-27 19:17 154 8 gusting 15 7.8
2020-Jan-27 19:12 108 6 gusting 15 7.8
2020-Jan-27 19:07 129 5 gusting 12 7.8
2020-Jan-27 19:02 135 4 gusting 12 7.8
2020-Jan-27 18:57 151 4 gusting 10 7.8
2020-Jan-27 18:52 122 4 gusting 10 7.8
2020-Jan-27 18:47 121 4 gusting 13 7.8
2020-Jan-27 18:42 116 6 gusting 13 7.8
2020-Jan-27 18:37 123 4 gusting 13 7.8
2020-Jan-27 18:32 139 9 gusting 13 7.8
2020-Jan-27 18:27 089 2 gusting 10 7.8
2020-Jan-27 18:17 129 8 gusting 13 7.2
2020-Jan-27 18:12 147 5 gusting 10 7.2
2020-Jan-27 18:07 106 8 gusting 12 7.2
2020-Jan-27 18:02 130 8 gusting 12 7.2
2020-Jan-27 17:57 136 4 gusting 12 7.2
2020-Jan-27 17:52 133 2 gusting 8 7.2
2020-Jan-27 17:47 122 6 gusting 10 7.2
2020-Jan-27 17:42 132 5 gusting 10 7.2
2020-Jan-27 17:37 143 1 gusting 10 7.2
2020-Jan-27 17:32 096 5 gusting 10 7.2
2020-Jan-27 17:27 142 4 gusting 15 7.2
2020-Jan-27 17:22 110 5 gusting 15 7.2
2020-Jan-27 17:17 086 5 gusting 8 7.2
2020-Jan-27 17:12 110 6 gusting 8 7.2
2020-Jan-27 17:07 112 2 gusting 12 6.7
2020-Jan-27 17:02 168 9 gusting 12 6.7
2020-Jan-27 16:52 162 2 gusting 10 6.7
2020-Jan-27 16:47 140 4 gusting 8 6.7
2020-Jan-27 16:42 131 2 gusting 6 6.7
2020-Jan-27 16:37 110 2 gusting 6 6.7
2020-Jan-27 16:32 134 1 gusting 8 6.7
2020-Jan-27 16:27 128 2 gusting 8 6.7
2020-Jan-27 16:22 120 5 gusting 6 6.7
2020-Jan-27 16:17 145 2 gusting 6 6.7
2020-Jan-27 16:12 126 4 gusting 6 6.7
2020-Jan-27 16:07 115 1 gusting 6 6.7
2020-Jan-27 16:02 105 1 gusting 6 6.7
2020-Jan-27 15:57 134 2 gusting 6 6.7
2020-Jan-27 15:52 141 2 gusting 5 6.7
2020-Jan-27 15:47 121 1 gusting 5 6.7
2020-Jan-27 15:42 112 1 gusting 5 6.7
2020-Jan-27 15:37 114 1 gusting 5 6.7
2020-Jan-27 15:32 127 6.7
2020-Jan-27 15:27 126 1 gusting 5 6.7
2020-Jan-27 15:22 123 1 gusting 5 6.7
2020-Jan-27 15:17 125 6.7
2020-Jan-27 15:12 124 1 gusting 1 7.2
2020-Jan-27 15:07 126 1 gusting 3 7.2
2020-Jan-27 15:02 127 1 gusting 3 7.2
2020-Jan-27 14:57 143 2 gusting 3 7.2
2020-Jan-27 14:52 122 1 gusting 3 7.2
2020-Jan-27 14:47 122 1 gusting 1 7.2
2020-Jan-27 14:42 146 7.2
2020-Jan-27 14:37 123 7.2
2020-Jan-27 14:32 131 1 gusting 3 7.8
2020-Jan-27 14:27 146 7.8
2020-Jan-27 14:22 167 2 gusting 6 7.8
2020-Jan-27 14:17 120 2 gusting 6 7.8
2020-Jan-27 14:12 131 1 gusting 5 7.8
2020-Jan-27 14:07 141 2 gusting 6 7.8
2020-Jan-27 14:02 120 2 gusting 6 7.8
2020-Jan-27 13:57 138 2 gusting 5 7.8
2020-Jan-27 13:52 124 1 gusting 6 7.8
2020-Jan-27 13:47 124 2 gusting 6 7.8
2020-Jan-27 13:42 122 1 gusting 5 7.8
2020-Jan-27 13:37 146 2 gusting 5 7.8
2020-Jan-27 13:32 148 1 gusting 5 7.8
2020-Jan-27 13:27 139 1 gusting 3 7.8
2020-Jan-27 13:22 110 2 gusting 3 7.8
2020-Jan-27 13:17 151 2 gusting 3 7.8
2020-Jan-27 13:12 119 1 gusting 5 7.8
2020-Jan-27 13:07 136 4 gusting 5 7.8
2020-Jan-27 13:02 138 7.8
2020-Jan-27 12:57 143 7.8
2020-Jan-27 12:52 148 1 gusting 3 7.8
2020-Jan-27 12:47 150 7.8
2020-Jan-27 12:42 126 1 gusting 1 7.8
2020-Jan-27 12:37 113 1 gusting 1 7.8
2020-Jan-27 12:32 139 1 gusting 1 7.8
2020-Jan-27 12:27 143 1 gusting 1 7.8
2020-Jan-27 12:22 143 8.3
2020-Jan-27 12:17 147 1 gusting 1 8.3
2020-Jan-27 12:12 134 1 gusting 1 8.3
2020-Jan-27 12:07 137 8.3
2020-Jan-27 12:02 188 1 gusting 3 8.3
2020-Jan-27 11:57 158 2 gusting 3 8.3
2020-Jan-27 11:52 205 8.3
2020-Jan-27 11:47 189 8.3
2020-Jan-27 11:42 206 1 gusting 1 8.9
2020-Jan-27 11:37 155 1 gusting 3 8.9
2020-Jan-27 11:32 179 1 gusting 3 8.9
2020-Jan-27 11:27 183 1 gusting 3 8.9
2020-Jan-27 11:22 174 1 gusting 5 8.9
2020-Jan-27 11:17 220 2 gusting 6 8.9
2020-Jan-27 11:12 160 8.9
2020-Jan-27 11:07 162 8.9
2020-Jan-27 11:02 121 1 gusting 3 8.9
2020-Jan-27 10:57 162 1 gusting 3 8.9
2020-Jan-27 10:52 216 8.9
2020-Jan-27 10:47 176 2 gusting 3 8.9
2020-Jan-27 10:42 193 2 gusting 3 8.9
2020-Jan-27 10:37 192 1 gusting 3 8.9
2020-Jan-27 10:32 173 8.3
2020-Jan-27 10:27 175 1 gusting 3 8.3
2020-Jan-27 10:22 190 2 gusting 3 8.3
2020-Jan-27 10:17 176 1 gusting 1 8.3
2020-Jan-27 10:12 169 1 gusting 5 8.3
2020-Jan-27 10:07 195 1 gusting 5 8.3
2020-Jan-27 10:02 169 1 gusting 3 8.3
2020-Jan-27 09:57 227 8.3
2020-Jan-27 09:52 129 1 gusting 1 8.3
2020-Jan-27 09:47 167 1 gusting 1 8.3
2020-Jan-27 09:42 120 8.3
2020-Jan-27 09:37 145 1 gusting 5 8.3
2020-Jan-27 09:32 149 1 gusting 3 8.3
2020-Jan-27 09:27 126 1 gusting 3 8.3
2020-Jan-27 09:22 138 8.3
2020-Jan-27 09:17 149 8.3
2020-Jan-27 09:12 214 1 gusting 3 8.3
2020-Jan-27 09:07 160 8.3
2020-Jan-27 09:02 173 1 gusting 5 8.3
2020-Jan-27 08:57 206 8.3
2020-Jan-27 08:52 164 8.3
2020-Jan-27 08:47 174 2 gusting 3 8.3
2020-Jan-27 08:42 118 8.3
2020-Jan-27 08:37 157 8.3
2020-Jan-27 08:32 128 1 gusting 6 8.3
2020-Jan-27 08:27 127 1 gusting 6 8.9
2020-Jan-27 08:22 152 2 gusting 5 8.9
2020-Jan-27 08:17 142 8.9
2020-Jan-27 08:11 234 8.9
2020-Jan-27 08:07 129 2 gusting 5 8.9
2020-Jan-27 08:02 167 4 gusting 5 8.9
2020-Jan-27 07:57 129 8.9
2020-Jan-27 07:52 037 4 gusting 5 8.9
2020-Jan-27 07:47 165 1 gusting 6 8.3
2020-Jan-27 07:42 158 2 gusting 6 8.3
2020-Jan-27 07:37 155 1 gusting 3 8.3
2020-Jan-27 07:32 137 8.3
2020-Jan-27 07:27 129 8.3
2020-Jan-27 07:22 174 2 gusting 3 7.8
2020-Jan-27 07:17 206 1 gusting 5 8.3
2020-Jan-27 07:12 150 8.3
2020-Jan-27 07:07 142 1 gusting 5 8.3
2020-Jan-27 07:02 148 8.3
2020-Jan-27 06:57 117 7.8
2020-Jan-27 06:52 111 2 gusting 3 7.8
2020-Jan-27 06:47 150 7.8
2020-Jan-27 06:41 155 7.8
2020-Jan-27 06:37 123 1 gusting 1 7.8
2020-Jan-27 06:32 108 7.8
2020-Jan-27 06:27 226 7.8
2020-Jan-27 06:22 141 7.8
2020-Jan-27 06:17 127 7.8
2020-Jan-27 06:12 117 8.3
2020-Jan-27 06:07 132 8.3
2020-Jan-27 06:02 258 1 gusting 3 7.8
2020-Jan-27 05:57 160 1 gusting 5 7.8
2020-Jan-27 05:52 103 4 gusting 5 7.8
2020-Jan-27 05:47 220 2 gusting 6 8.3
2020-Jan-27 05:41 240 2 gusting 6 8.9
2020-Jan-27 05:37 132 8.9
2020-Jan-27 05:32 175 1 gusting 5 8.9
2020-Jan-27 05:27 161 8.9
2020-Jan-27 05:22 176 1 gusting 3 8.9
2020-Jan-27 05:17 186 1 gusting 5 8.9
2020-Jan-27 05:12 244 8.9
2020-Jan-27 05:07 098 2 gusting 5 8.9
2020-Jan-27 05:02 192 2 gusting 5 8.9
2020-Jan-27 04:57 239 4 gusting 5 8.9
2020-Jan-27 04:52 127 8.9
2020-Jan-27 04:47 071 1 gusting 5 8.9
2020-Jan-27 04:42 214 1 gusting 12 8.9
2020-Jan-27 04:37 131 1 gusting 13 8.9
2020-Jan-27 04:32 114 1 gusting 13 8.9
2020-Jan-27 04:27 110 2 gusting 5 9.4
2020-Jan-27 04:22 262 1 gusting 5 9.4
2020-Jan-27 04:17 195 2 gusting 5 9.4
2020-Jan-27 04:12 162 2 gusting 5 8.9
2020-Jan-27 04:07 162 1 gusting 3 8.9
2020-Jan-27 04:02 283 1 gusting 3 8.9
2020-Jan-27 03:57 309 2 gusting 3 8.9
2020-Jan-27 03:52 176 8.9
2020-Jan-27 03:47 089 1 gusting 5 8.9
2020-Jan-27 03:42 105 1 gusting 8 8.9
2020-Jan-27 03:37 162 1 gusting 8 8.9
2020-Jan-27 03:32 055 1 gusting 3 8.9
2020-Jan-27 03:27 148 1 gusting 3 8.9
2020-Jan-27 03:22 085 8.9
2020-Jan-27 03:17 122 1 gusting 10 8.9
2020-Jan-27 03:12 097 2 gusting 10 8.9
2020-Jan-27 03:07 188 1 gusting 6 8.9
2020-Jan-27 03:02 115 1 gusting 6 8.9
2020-Jan-27 02:57 197 5 gusting 6 8.9
2020-Jan-27 02:52 145 1 gusting 5 8.9
2020-Jan-27 02:47 191 8.9
2020-Jan-27 02:42 093 1 gusting 5 8.9
2020-Jan-27 02:37 154 9.4
2020-Jan-27 02:32 094 2 gusting 5 9.4
2020-Jan-27 02:27 138 1 gusting 6 9.4
2020-Jan-27 02:22 171 2 gusting 8 9.4
2020-Jan-27 02:17 167 5 gusting 8 9.4
2020-Jan-27 02:12 162 5 gusting 8 8.9
2020-Jan-27 02:07 221 2 gusting 17 8.9
2020-Jan-27 02:02 203 8 gusting 17 8.9
2020-Jan-27 01:57 176 6 gusting 12 8.9
2020-Jan-27 01:52 220 4 gusting 12 8.9
2020-Jan-27 01:47 163 6 gusting 12 8.9
2020-Jan-27 01:42 191 4 gusting 15 8.9
2020-Jan-27 01:37 167 5 gusting 22 8.9
2020-Jan-27 01:32 146 8 gusting 22 8.9
2020-Jan-27 01:27 202 5 gusting 13 8.9
2020-Jan-27 01:22 210 6 gusting 33 8.9
2020-Jan-27 01:17 176 4 gusting 33 8.9
2020-Jan-27 01:12 158 5 gusting 17 8.9
2020-Jan-27 01:07 184 4 gusting 15 8.9
2020-Jan-27 01:02 186 8 gusting 15 8.9
2020-Jan-27 00:57 148 4 gusting 27 8.9
2020-Jan-27 00:52 121 16 gusting 27 9.4
2020-Jan-27 00:47 167 8 gusting 22 9.4
2020-Jan-27 00:42 207 2 gusting 19 9.4
2020-Jan-27 00:37 169 12 gusting 19 9.4
2020-Jan-27 00:32 186 2 gusting 15 9.4
2020-Jan-27 00:27 177 8 gusting 20 9.4
2020-Jan-27 00:22 155 8 gusting 20 9.4
2020-Jan-27 00:17 138 4 gusting 10 10.0
2020-Jan-27 00:12 186 5 gusting 10 10.0
2020-Jan-27 00:07 168 4 gusting 19 10.0
2020-Jan-27 00:02 169 5 gusting 19 10.0
2020-Jan-26 23:57 168 5 gusting 13 10.6
2020-Jan-26 23:52 175 4 gusting 13 10.6
2020-Jan-26 23:47 197 11 gusting 20 10.6
2020-Jan-26 23:42 188 6 gusting 20 10.6
2020-Jan-26 23:37 148 5 gusting 26 10.6
2020-Jan-26 23:32 145 8 gusting 26 10.6
2020-Jan-26 23:27 125 4 gusting 26 10.6
2020-Jan-26 23:22 156 20 gusting 26 10.6
2020-Jan-26 23:17 179 4 gusting 24 10.6
2020-Jan-26 23:12 200 4 gusting 24 10.6
2020-Jan-26 23:07 139 4 gusting 10 10.6
2020-Jan-26 23:02 082 1 gusting 15 11.1
2020-Jan-26 22:57 158 1 gusting 19 11.1
2020-Jan-26 22:52 230 5 gusting 24 11.1
2020-Jan-26 22:47 128 5 gusting 24 11.1
2020-Jan-26 22:42 115 9 gusting 17 11.1
2020-Jan-26 22:37 140 6 gusting 19 11.1
2020-Jan-26 22:32 186 5 gusting 19 11.1
2020-Jan-26 22:27 178 5 gusting 22 11.1
2020-Jan-26 22:22 175 15 gusting 22 11.1
2020-Jan-26 22:17 200 13 gusting 17 11.1
2020-Jan-26 22:12 175 4 gusting 19 11.1
2020-Jan-26 22:07 153 9 gusting 19 11.1
2020-Jan-26 22:02 151 8 gusting 24 11.1